[[{"header":{"parameterUnit":"m.s-1","parameterCategory":1,"la1":30.2991,"la2":30.254,"lo1":-89.0895,"lo2":-89.0444,"dy":0.0017,"dx":0.0017,"nx":28,"ny":28,"refTime":"2024-12-12T03:00:00:Z","depth":0,"parameterNumber":2,"parameterNumberName":"U-component_of_WINDS"},"data":[0,0,0,0,0,0,0,0,0,0,0,0,0,0,0,0,0,0,0,0,0,0,0,0,0,0,0,0,0,0,0,0,0,0,0,0,0,0,0,0,0,0,0,0,0,0,0,0,0,0,0,0,0,0,0,0,0,0,-7.2936,-7.2937,0,-7.2967,-7.2967,-7.2967,-7.2795,-7.279,-7.2785,-7.2781,-7.2812,-7.2818,-7.2823,0,0,0,0,0,0,0,0,0,0,0,0,0,-7.2731,-7.2735,-7.2936,-7.2937,-7.2937,-7.2967,-7.2967,-7.2968,-7.2796,-7.279,-7.2784,-7.2779,-7.2811,-7.2817,-7.2824,0,0,0,0,0,0,0,0,0,0,0,0,0,-7.2797,-7.2737,-7.2936,-7.2855,-7.2848,-7.2967,-7.2967,-7.2968,-7.2797,-7.279,-7.2783,-7.2776,-7.2809,-7.2816,-7.2825,-7.3023,0,0,-7.2849,-7.2853,0,0,0,0,0,0,0,0,-7.2793,-7.2804,-7.2867,-7.2861,-7.2853,-7.287,-7.2906,-7.2986,-7.2799,-7.2817,-7.2781,-7.2772,-7.2838,-7.2843,-7.2865,-7.3024,-7.3025,-7.285,-7.2855,-7.2859,-7.2861,0,0,0,0,0,0,0,-7.2789,-7.2802,-7.2948,-7.2868,-7.286,-7.2817,-7.2819,-7.292,-7.2868,-7.2815,-7.2802,-7.2808,-7.2832,-7.2857,-7.2864,-7.3026,-7.285,-7.2857,-7.2862,-7.2865,-7.335,-7.3357,0,0,0,0,0,0,-7.2795,-7.2799,-7.2947,-7.2949,-7.2804,-7.2827,-7.2828,-7.2872,-7.2867,-7.2859,-7.2814,-7.28,-7.2847,-7.2855,-7.2865,-7.3096,-7.2858,-7.2866,-7.2871,-7.3342,-7.3351,-7.336,0,0,0,0,0,0,-7.2791,-7.281,-7.2946,-7.2871,-7.2885,-7.2839,-7.2889,-7.2876,-7.2901,-7.2866,-7.2856,-7.2849,-7.2841,-7.2853,-7.2985,-7.3095,-7.287,-7.2877,-7.3332,-7.3345,-7.3356,-7.3562,0,0,0,0,0,0,-7.2786,-7.2809,-7.2884,-7.2874,-7.289,-7.3066,-7.2895,-7.2882,-7.2915,-7.2897,-7.2897,-7.2889,-7.2837,-7.2973,-7.2993,-7.3102,-7.2884,-7.3322,-7.3338,-7.3352,-7.3545,-7.3579,-7.3608,0,0,0,0,0,-7.2779,-7.2941,-7.2889,-7.2907,-7.2982,-7.3073,-7.3082,-7.3018,-7.2925,-7.3,-7.2978,-7.2889,-7.308,-7.2988,-7.3009,-7.3122,-7.3315,-7.3333,-7.3351,-7.353,-7.3572,-7.3608,0,0,0,0,0,0,-7.2965,-7.2938,-7.288,-7.3043,-7.3062,-7.3043,-7.3135,-7.3064,-7.3109,-7.309,-7.3009,-7.301,-7.3156,-7.3152,-7.305,-7.3314,-7.3181,-7.3204,-7.3311,-7.335,-7.3382,-7.3379,-7.289,0,0,0,0,0,-7.3025,-7.31,-7.3073,-7.3219,-7.3231,-7.3183,-7.322,-7.3169,-7.3185,-7.3192,-7.3179,-7.3198,-7.3262,-7.3306,-7.3363,-7.3543,-7.3541,-7.3632,-7.3664,-7.369,-7.3711,-7.3806,-7.3846,-7.3419,-7.3419,-7.3419,0,0,-7.3149,-7.3144,-7.3196,-7.3256,-7.3265,-7.3345,-7.319,-7.3282,-7.3341,-7.3205,-7.3329,-7.3321,-7.3337,-7.3494,-7.3562,-7.3495,-7.3828,-7.3713,-7.3734,-7.374,-7.3829,-7.3869,-7.3905,-7.3431,-7.3429,-7.3427,0,0,-7.3416,-7.342,-7.3543,-7.3555,-7.3569,-7.3536,-7.3566,-7.3559,-7.3549,-7.3671,-7.3572,-7.3641,-7.3753,-7.3768,-7.3791,-7.4067,-7.3987,-7.4088,-7.4254,-7.4348,-7.4382,-7.4411,-7.451,-7.4546,-7.4108,-7.4109,-7.4109,0,-7.3569,-7.3686,-7.3615,-7.3713,-7.3743,-7.3625,-7.3748,-7.3763,-7.3797,-7.382,-7.3744,-7.3883,-7.3885,-7.4045,-7.4112,-7.4135,-7.4166,-7.4087,-7.4383,-7.4412,-7.4438,-7.4531,-7.4568,-7.4121,-7.412,-7.4118,-7.4117,0,-7.3873,-7.3956,-7.4053,-7.4089,-7.4129,-7.424,-7.4186,-7.4236,-7.4182,-7.4157,-7.4284,-7.4283,-7.4338,-7.4372,-7.432,-7.4525,-7.4483,-7.4397,-7.4262,-7.4492,-7.4578,-7.4613,-7.4138,-7.4134,-7.413,-7.4127,0,0,-7.4257,-7.4252,-7.4289,-7.4304,-7.4312,-7.4375,-7.4481,-7.4535,-7.458,-7.4607,-7.4694,-7.4792,-7.4713,-7.4739,-7.4688,-7.4771,-7.499,-7.4674,-7.4673,-7.4733,-7.5216,-7.528,-7.5322,-7.4938,-7.4944,-7.4949,-7.5214,0,-7.4518,-7.4699,-7.4638,-7.4822,-7.4898,-7.4787,-7.488,-7.4896,-7.4876,-7.4937,-7.4914,-7.4986,-7.4875,-7.4891,-7.4968,-7.4947,-7.5086,-7.4927,-7.5018,-7.5022,-7.5017,-7.5367,-7.5435,-7.5685,-7.5247,-7.5253,-7.5257,0,-7.4847,-7.4888,-7.508,-7.5076,-7.5105,-7.519,-7.5234,-7.5295,-7.5311,-7.529,-7.5321,-7.5253,-7.5357,-7.5223,-7.5365,-7.5259,-7.5293,-7.5289,-7.5297,-7.5302,-7.5153,-7.5382,-7.5763,-7.5801,-7.5309,-7.5305,-7.5301,0,-7.5108,-7.5211,-7.5339,-7.5355,-7.5354,-7.5416,-7.5418,-7.5427,-7.5463,-7.5503,-7.5526,-7.5578,-7.5606,-7.5648,-7.5596,-7.5503,-7.5747,-7.5608,-7.5732,-7.5734,-7.5788,-7.5785,-7.618,-7.5811,-7.5811,-7.581,-7.5809,0,-7.5406,-7.5527,-7.5456,-7.5535,-7.5668,-7.5598,-7.5731,-7.5721,-7.573,-7.5805,-7.5713,-7.5786,-7.5713,-7.5779,-7.5739,-7.5863,-7.5877,-7.5863,-7.5851,-7.5871,-7.5873,-7.5892,-7.5873,-7.582,-7.5818,-7.5816,-7.5814,0,-7.5719,-7.5676,-7.5808,-7.5797,-7.5797,-7.5896,-7.5886,-7.5958,-7.5932,-7.6029,-7.6047,-7.6006,-7.6079,-7.6032,-7.6106,-7.6079,-7.6242,-7.6205,-7.6236,-7.6226,-7.6354,-7.6343,-7.6774,-7.6827,-7.6425,-7.6429,-7.6432,0,-7.5912,-7.6003,-7.6002,-7.6045,-7.6054,-7.6126,-7.6163,-7.6098,-7.614,-7.6166,-7.6236,-7.6301,-7.635,-7.6472,-7.6449,-7.6505,-7.6469,-7.6617,-7.6477,-7.6495,-7.6471,-7.6467,-7.6475,-7.6645,-7.665,-7.6654,-7.6657,0,-7.6259,-7.6233,-7.629,-7.6341,-7.6388,-7.6424,-7.6453,-7.6495,-7.643,-7.6482,-7.6556,-7.6594,-7.6669,-7.6736,-7.6783,-7.6785,-7.6711,-7.6701,-7.6733,-7.6754,-7.6768,-7.6762,-7.6313,-7.6691,-7.6688,-7.6685,-7.6683,-7.6682,-7.6517,-7.6593,-7.6604,-7.6671,-7.6686,-7.6716,-7.6784,-7.6767,-7.6827,-7.6883,-7.6842,-7.693,-7.6944,-7.6999,-7.7012,-7.708,-7.702,-7.7066,-7.7077,-7.709,-7.7107,-7.6758,-7.7088,-7.7087,-7.7086,-7.7085,-7.7084,0,-7.6858,-7.686,-7.6923,-7.6967,-7.702,-7.6946,-7.6974,-7.7024,-7.7102,-7.7122,-7.7172,-7.7258,-7.7322,-7.7305,-7.7362,-7.742,-7.7387,-7.7437,-7.7432,-7.7434,-7.7158,-7.7124,-7.7463,-7.7463,-7.7462,-7.7462,-7.7462,-7.7462,-7.7042,-7.7166,-7.7143,-7.7275,-7.7276,-7.7361,-7.7384,-7.7411,-7.7426,-7.7526,-7.7579,-7.7567,-7.7573,-7.763,-7.7686,-7.7679,-7.7705,-7.7767,-7.7748,-7.7491,-7.7453,-7.7418,-7.7386,-7.7773,-7.7774,-7.8018,-7.8021,-7.8022]},{"header":{"parameterUnit":"m.s-1","parameterCategory":1,"la1":30.2991,"la2":30.254,"lo1":-89.0895,"lo2":-89.0444,"dy":0.0017,"dx":0.0017,"nx":28,"ny":28,"refTime":"2024-12-12T03:00:00:Z","depth":0,"parameterNumber":3,"parameterNumberName":"V-component_of_WINDS"},"data":[0,0,0,0,0,0,0,0,0,0,0,0,0,0,0,0,0,0,0,0,0,0,0,0,0,0,0,0,0,0,0,0,0,0,0,0,0,0,0,0,0,0,0,0,0,0,0,0,0,0,0,0,0,0,0,0,0,0,-0.5282,-0.5282,0,-0.5312,-0.5313,-0.5313,-0.5287,-0.5286,-0.5285,-0.5284,-0.5318,-0.532,-0.5321,0,0,0,0,0,0,0,0,0,0,0,0,0,-0.5202,-0.5204,-0.5282,-0.5282,-0.5283,-0.5312,-0.5313,-0.5313,-0.5287,-0.5286,-0.5285,-0.5283,-0.5317,-0.5319,-0.5322,0,0,0,0,0,0,0,0,0,0,0,0,0,-0.5235,-0.5204,-0.5282,-0.5273,-0.5273,-0.5312,-0.5313,-0.5313,-0.5288,-0.5286,-0.5284,-0.5283,-0.5316,-0.5319,-0.5322,-0.5372,0,0,-0.5331,-0.5332,0,0,0,0,0,0,0,0,-0.5233,-0.5238,-0.5274,-0.5274,-0.5274,-0.5294,-0.5297,-0.5333,-0.5288,-0.5282,-0.5284,-0.5282,-0.5311,-0.5315,-0.5324,-0.5374,-0.5375,-0.5331,-0.5333,-0.5334,-0.5335,0,0,0,0,0,0,0,-0.5231,-0.5237,-0.5294,-0.5275,-0.5274,-0.5268,-0.5271,-0.5304,-0.5306,-0.5282,-0.5281,-0.5284,-0.5311,-0.5321,-0.5325,-0.5376,-0.5331,-0.5333,-0.5335,-0.5336,-0.5466,-0.5468,0,0,0,0,0,0,-0.5229,-0.5235,-0.5293,-0.5295,-0.5249,-0.5271,-0.5274,-0.5289,-0.5305,-0.5306,-0.5286,-0.5283,-0.5317,-0.5321,-0.5326,-0.5384,-0.5334,-0.5337,-0.5338,-0.5465,-0.5467,-0.5469,0,0,0,0,0,0,-0.5228,-0.5235,-0.5292,-0.5264,-0.5271,-0.5274,-0.5291,-0.5291,-0.5301,-0.5308,-0.5308,-0.5296,-0.5316,-0.5322,-0.536,-0.5385,-0.5338,-0.5341,-0.5463,-0.5465,-0.5468,-0.5503,0,0,0,0,0,0,-0.5226,-0.5234,-0.5254,-0.5265,-0.5273,-0.5326,-0.5293,-0.5293,-0.5306,-0.5303,-0.5317,-0.5318,-0.5315,-0.5356,-0.5363,-0.5388,-0.5343,-0.546,-0.5464,-0.5467,-0.55,-0.5507,-0.5513,0,0,0,0,0,-0.5223,-0.5263,-0.5255,-0.5262,-0.5297,-0.5328,-0.5332,-0.5327,-0.5308,-0.5327,-0.5331,-0.5318,-0.5381,-0.536,-0.5368,-0.5395,-0.5459,-0.5463,-0.5467,-0.5497,-0.5505,-0.5513,0,0,0,0,0,0,-0.5257,-0.5265,-0.5255,-0.5301,-0.5313,-0.5323,-0.5347,-0.5336,-0.5355,-0.5352,-0.5345,-0.5349,-0.5389,-0.5396,-0.5372,-0.5443,-0.5417,-0.5423,-0.5438,-0.5446,-0.5452,-0.545,-0.5345,0,0,0,0,0,-0.5269,-0.5293,-0.5299,-0.5339,-0.5345,-0.5345,-0.5358,-0.5353,-0.5366,-0.5372,-0.5379,-0.5392,-0.5415,-0.5431,-0.5452,-0.55,-0.5503,-0.5522,-0.5528,-0.5534,-0.5539,-0.5563,-0.5572,-0.5481,-0.5481,-0.5481,0,0,-0.5296,-0.5303,-0.5319,-0.5345,-0.5355,-0.5379,-0.535,-0.5378,-0.5396,-0.5376,-0.5413,-0.5418,-0.5433,-0.5476,-0.5495,-0.5483,-0.5564,-0.5539,-0.5543,-0.5545,-0.5568,-0.5577,-0.5584,-0.5484,-0.5484,-0.5483,0,0,-0.5357,-0.5365,-0.5398,-0.5407,-0.5421,-0.542,-0.5428,-0.5438,-0.5441,-0.5477,-0.5462,-0.5483,-0.5523,-0.5534,-0.5545,-0.5606,-0.5595,-0.5614,-0.5647,-0.5671,-0.5679,-0.5685,-0.5706,-0.5714,-0.5619,-0.5619,-0.5619,0,-0.5389,-0.5425,-0.5417,-0.5445,-0.5457,-0.5438,-0.5471,-0.548,-0.5501,-0.5509,-0.5494,-0.5542,-0.5551,-0.5596,-0.5611,-0.562,-0.5628,-0.5613,-0.5678,-0.5684,-0.569,-0.571,-0.5719,-0.5621,-0.5621,-0.562,-0.562,0,-0.5463,-0.5488,-0.5513,-0.5531,-0.5546,-0.5576,-0.5573,-0.5588,-0.5581,-0.5581,-0.5618,-0.5627,-0.5649,-0.5659,-0.5653,-0.5703,-0.5694,-0.5679,-0.5653,-0.5701,-0.572,-0.5728,-0.5624,-0.5623,-0.5623,-0.5622,0,0,-0.5548,-0.5559,-0.5569,-0.5576,-0.5588,-0.5608,-0.5637,-0.5657,-0.567,-0.5684,-0.5708,-0.5741,-0.5726,-0.5738,-0.5733,-0.5754,-0.5801,-0.5735,-0.5736,-0.5747,-0.5855,-0.5867,-0.5876,-0.5793,-0.5794,-0.5795,-0.5854,0,-0.5609,-0.5659,-0.5651,-0.57,-0.5722,-0.5703,-0.5729,-0.5739,-0.574,-0.5759,-0.576,-0.5783,-0.5762,-0.5769,-0.5788,-0.5791,-0.5823,-0.5787,-0.5815,-0.5816,-0.5813,-0.5886,-0.5899,-0.5954,-0.5861,-0.5862,-0.5863,0,-0.5688,-0.5703,-0.5753,-0.576,-0.5769,-0.5792,-0.5809,-0.5827,-0.5838,-0.5837,-0.5849,-0.5839,-0.5868,-0.584,-0.5879,-0.5855,-0.5866,-0.5869,-0.5871,-0.5874,-0.5843,-0.5891,-0.5971,-0.5979,-0.5875,-0.5874,-0.5873,0,-0.5745,-0.5777,-0.5811,-0.5818,-0.5827,-0.5843,-0.5847,-0.5856,-0.5868,-0.5883,-0.5891,-0.5909,-0.592,-0.5934,-0.5929,-0.591,-0.5969,-0.5941,-0.5969,-0.5969,-0.5984,-0.5983,-0.6067,-0.599,-0.599,-0.599,-0.599,0,-0.5814,-0.5845,-0.5836,-0.5857,-0.5891,-0.5881,-0.5916,-0.5918,-0.5925,-0.5946,-0.5931,-0.5951,-0.5943,-0.5963,-0.5959,-0.5992,-0.5997,-0.5997,-0.5995,-0.5998,-0.5998,-0.6006,-0.6002,-0.5992,-0.5992,-0.5991,-0.5991,0,-0.5884,-0.5879,-0.5914,-0.5919,-0.592,-0.5945,-0.5949,-0.5968,-0.5967,-0.5993,-0.5999,-0.5997,-0.6019,-0.6015,-0.604,-0.6037,-0.6078,-0.6072,-0.6074,-0.6073,-0.61,-0.6098,-0.6193,-0.6204,-0.612,-0.6121,-0.6122,0,-0.5929,-0.5952,-0.5958,-0.597,-0.5975,-0.5996,-0.6007,-0.5998,-0.601,-0.6023,-0.604,-0.606,-0.6076,-0.6112,-0.6113,-0.6131,-0.6126,-0.6157,-0.6128,-0.613,-0.6126,-0.6125,-0.6126,-0.6163,-0.6164,-0.6165,-0.6166,0,-0.6008,-0.6004,-0.6021,-0.6036,-0.605,-0.6062,-0.6073,-0.6084,-0.6075,-0.609,-0.6111,-0.6123,-0.6147,-0.6167,-0.6183,-0.6188,-0.6176,-0.6174,-0.6182,-0.6185,-0.6185,-0.6185,-0.609,-0.6173,-0.6172,-0.6172,-0.6171,-0.6171,-0.6067,-0.6086,-0.6093,-0.6111,-0.6118,-0.6128,-0.6145,-0.6145,-0.6162,-0.618,-0.6173,-0.6197,-0.6206,-0.6226,-0.6233,-0.6251,-0.624,-0.6251,-0.6253,-0.6256,-0.6259,-0.6182,-0.6254,-0.6254,-0.6254,-0.6254,-0.6254,0,-0.6146,-0.6148,-0.6165,-0.618,-0.6194,-0.6179,-0.6189,-0.6203,-0.6224,-0.6232,-0.6247,-0.627,-0.6289,-0.629,-0.6308,-0.6322,-0.6317,-0.6327,-0.6326,-0.6328,-0.6269,-0.6261,-0.6331,-0.6331,-0.6331,-0.6331,-0.6331,-0.6331,-0.6188,-0.622,-0.6216,-0.6249,-0.6252,-0.6274,-0.6281,-0.629,-0.6296,-0.6323,-0.6338,-0.6338,-0.6343,-0.636,-0.6377,-0.6376,-0.6384,-0.6396,-0.6394,-0.634,-0.6332,-0.6325,-0.6317,-0.6398,-0.6398,-0.6451,-0.6451,-0.6452]}]]